Time,TemperatureF,DewpointF,PressureIn,WindDirection,WindDirectionDegrees,WindSpeedMPH,WindSpeedGustMPH,Humidity,HourlyPrecipIn,Conditions,Clouds,dailyrainin,SoftwareType,DateUTC
2013-04-02 00:00:00,35.2,25.4,29.86,North,0,0.0,0.0,67,0.00,CLR,BKN,0.00,WeatherDisplay:10.37,2013-04-01 22:00:00,
2013-04-02 00:10:00,35.1,25.2,29.85,North,0,0.0,2.0,67,0.00,CLR,BKN,0.00,WeatherDisplay:10.37,2013-04-01 22:10:00,
2013-04-02 00:15:00,35.1,25.2,29.85,NNE,20,1.0,2.0,67,0.00,CLR,BKN,0.00,WeatherDisplay:10.37,2013-04-01 22:15:00,
2013-04-02 00:20:00,35.1,25.6,29.86,NE,43,1.0,2.0,68,0.00,CLR,BKN,0.00,WeatherDisplay:10.37,2013-04-01 22:20:00,
2013-04-02 00:25:00,35.1,25.6,29.85,NE,37,1.0,2.0,68,0.00,CLR,BKN,0.00,WeatherDisplay:10.37,2013-04-01 22:25:00,
2013-04-02 00:30:00,35.2,25.7,29.85,NE,40,0.0,3.0,68,0.00,CLR,BKN,0.00,WeatherDisplay:10.37,2013-04-01 22:30:00,
2013-04-02 00:40:00,35.2,25.7,29.85,NE,36,1.0,2.0,68,0.00,CLR,BKN,0.00,WeatherDisplay:10.37,2013-04-01 22:40:00,
2013-04-02 00:45:00,35.2,25.7,29.85,NNE,16,2.0,3.0,68,0.00,CLR,BKN,0.00,WeatherDisplay:10.37,2013-04-01 22:45:00,
2013-04-02 00:50:00,35.2,25.7,29.86,NNE,20,1.0,3.0,68,0.00,CLR,BKN,0.00,WeatherDisplay:10.37,2013-04-01 22:50:00,
2013-04-02 00:55:00,35.2,26.1,29.85,NE,40,1.0,2.0,69,0.00,CLR,BKN,0.00,WeatherDisplay:10.37,2013-04-01 22:55:00,
2013-04-02 01:00:00,35.2,26.1,29.85,NNE,26,0.0,2.0,69,0.00,CLR,BKN,0.00,WeatherDisplay:10.37,2013-04-01 23:00:00,
2013-04-02 01:10:00,35.2,26.1,29.85,NNE,21,1.0,3.0,69,0.00,CLR,BKN,0.00,WeatherDisplay:10.37,2013-04-01 23:10:00,
2013-04-02 01:15:00,35.2,26.1,29.86,NE,48,1.0,2.0,69,0.00,CLR,BKN,0.00,WeatherDisplay:10.37,2013-04-01 23:15:00,
2013-04-02 01:20:00,35.2,26.1,29.86,East,101,0.0,2.0,69,0.00,BKN,BKN,0.00,WeatherDisplay:10.37,2013-04-01 23:20:00,
2013-04-02 01:30:00,35.1,25.9,29.86,East,100,1.0,2.0,69,0.00,BKN,BKN,0.00,WeatherDisplay:10.37,2013-04-01 23:30:00,
2013-04-02 01:35:00,35.1,25.9,29.86,ESE,123,0.0,2.0,69,0.00,BKN,BKN,0.00,WeatherDisplay:10.37,2013-04-01 23:35:00,
2013-04-02 01:40:00,35.1,25.9,29.85,East,99,1.0,2.0,69,0.00,BKN,BKN,0.00,WeatherDisplay:10.37,2013-04-01 23:40:00,
2013-04-02 01:45:00,35.1,26.3,29.85,ENE,60,2.0,3.0,70,0.00,BKN,BKN,0.00,WeatherDisplay:10.37,2013-04-01 23:45:00,
2013-04-02 01:50:00,35.1,26.3,29.85,ENE,76,1.0,3.0,70,0.00,BKN,BKN,0.00,WeatherDisplay:10.37,2013-04-01 23:50:00,
2013-04-02 02:00:00,34.9,26.1,29.84,NE,45,1.0,3.0,70,0.00,BKN,BKN,0.00,WeatherDisplay:10.37,2013-04-02 00:00:00,
2013-04-02 02:05:00,34.9,26.1,29.84,NE,45,1.0,3.0,70,0.00,BKN,BKN,0.00,WeatherDisplay:10.37,2013-04-02 00:05:00,
2013-04-02 02:10:00,34.9,26.1,29.85,ENE,59,1.0,3.0,70,0.00,BKN,BKN,0.00,WeatherDisplay:10.37,2013-04-02 00:10:00,
2013-04-02 02:15:00,34.9,26.1,29.85,ENE,77,2.0,4.0,70,0.00,BKN,BKN,0.00,WeatherDisplay:10.37,2013-04-02 00:15:00,
2013-04-02 02:20:00,34.9,26.1,29.85,ENE,71,2.0,3.0,70,0.00,BKN,BKN,0.00,WeatherDisplay:10.37,2013-04-02 00:20:00,
2013-04-02 02:30:00,34.5,25.7,29.85,NE,39,2.0,3.0,70,0.00,BKN,BKN,0.00,WeatherDisplay:10.37,2013-04-02 00:30:00,
2013-04-02 02:35:00,34.5,25.7,29.84,NNE,20,1.0,3.0,70,0.00,BKN,BKN,0.00,WeatherDisplay:10.37,2013-04-02 00:35:00,
2013-04-02 02:40:00,34.5,26.1,29.84,NNW,332,1.0,4.0,71,0.00,BKN,BKN,0.00,WeatherDisplay:10.37,2013-04-02 00:40:00,
2013-04-02 02:45:00,34.7,26.3,29.84,NW,306,1.0,2.0,71,0.00,BKN,BKN,0.00,WeatherDisplay:10.37,2013-04-02 00:45:00,
2013-04-02 02:50:00,34.7,25.9,29.84,NW,310,1.0,3.0,70,0.00,BKN,BKN,0.00,WeatherDisplay:10.37,2013-04-02 00:50:00,
2013-04-02 03:00:00,34.9,26.1,29.84,North,359,1.0,2.0,70,0.00,BKN,BKN,0.00,WeatherDisplay:10.37,2013-04-02 01:00:00,
2013-04-02 03:05:00,34.9,26.1,29.84,NNW,345,1.0,2.0,70,0.00,BKN,BKN,0.00,WeatherDisplay:10.37,2013-04-02 01:05:00,
2013-04-02 03:10:00,34.9,26.1,29.84,NNW,334,2.0,3.0,70,0.00,BKN,BKN,0.00,WeatherDisplay:10.37,2013-04-02 01:10:00,
2013-04-02 03:15:00,35.1,26.3,29.84,NNW,336,2.0,4.0,70,0.00,BKN,BKN,0.00,WeatherDisplay:10.37,2013-04-02 01:15:00,
2013-04-02 03:20:00,35.1,26.3,29.84,North,2,3.0,4.0,70,0.00,SCT,BKN,0.00,WeatherDisplay:10.37,2013-04-02 01:20:00,
2013-04-02 03:25:00,35.1,26.3,29.84,North,6,2.0,4.0,70,0.00,SCT,BKN,0.00,WeatherDisplay:10.37,2013-04-02 01:25:00,
2013-04-02 03:30:00,35.1,26.3,29.84,North,359,1.0,4.0,70,0.00,SCT,BKN,0.00,WeatherDisplay:10.37,2013-04-02 01:30:00,
2013-04-02 03:40:00,35.2,26.4,29.84,North,352,2.0,4.0,70,0.00,SCT,BKN,0.00,WeatherDisplay:10.37,2013-04-02 01:40:00,
2013-04-02 03:45:00,35.2,26.4,29.84,NNW,348,2.0,4.0,70,0.00,SCT,BKN,0.00,WeatherDisplay:10.37,2013-04-02 01:45:00,
2013-04-02 03:50:00,35.2,26.4,29.84,North,358,2.0,4.0,70,0.00,CLR,BKN,0.00,WeatherDisplay:10.37,2013-04-02 01:50:00,
2013-04-02 03:55:00,35.2,26.4,29.83,NNE,12,1.0,4.0,70,0.00,CLR,BKN,0.00,WeatherDisplay:10.37,2013-04-02 01:55:00,
2013-04-02 04:00:00,35.2,26.4,29.83,NNE,26,1.0,3.0,70,0.00,CLR,BKN,0.00,WeatherDisplay:10.37,2013-04-02 02:00:00,
2013-04-02 04:10:00,35.2,26.4,29.83,NE,45,1.0,3.0,70,0.00,CLR,BKN,0.00,WeatherDisplay:10.37,2013-04-02 02:10:00,
2013-04-02 04:15:00,35.2,26.4,29.83,NE,55,1.0,2.0,70,0.00,CLR,BKN,0.00,WeatherDisplay:10.37,2013-04-02 02:15:00,
2013-04-02 04:20:00,35.2,26.4,29.83,ENE,57,1.0,3.0,70,0.00,CLR,BKN,0.00,WeatherDisplay:10.37,2013-04-02 02:20:00,
2013-04-02 04:25:00,35.2,26.4,29.83,NNE,30,2.0,4.0,70,0.00,CLR,BKN,0.00,WeatherDisplay:10.37,2013-04-02 02:25:00,
2013-04-02 04:30:00,35.2,26.4,29.83,NNE,17,2.0,4.0,70,0.00,CLR,BKN,0.00,WeatherDisplay:10.37,2013-04-02 02:30:00,
2013-04-02 04:35:00,35.2,26.4,29.82,NNE,22,2.0,4.0,70,0.00,CLR,BKN,0.00,WeatherDisplay:10.37,2013-04-02 02:35:00,
2013-04-02 04:45:00,35.4,26.6,29.82,North,8,2.0,4.0,70,0.00,CLR,BKN,0.00,WeatherDisplay:10.37,2013-04-02 02:45:00,
2013-04-02 04:50:00,35.4,26.6,29.82,North,10,3.0,5.0,70,0.00,CLR,BKN,0.00,WeatherDisplay:10.37,2013-04-02 02:50:00,
2013-04-02 04:55:00,35.4,26.3,29.82,NNE,21,3.0,6.0,69,0.00,CLR,BKN,0.00,WeatherDisplay:10.37,2013-04-02 02:55:00,
2013-04-02 05:05:00,35.4,26.3,29.82,NE,44,1.0,2.0,69,0.00,CLR,BKN,0.00,WeatherDisplay:10.37,2013-04-02 03:05:00,
2013-04-02 05:10:00,35.4,26.3,29.82,NE,40,1.0,3.0,69,0.00,CLR,BKN,0.00,WeatherDisplay:10.37,2013-04-02 03:10:00,
2013-04-02 05:15:00,35.4,26.3,29.82,NNE,16,2.0,4.0,69,0.00,CLR,BKN,0.00,WeatherDisplay:10.37,2013-04-02 03:15:00,
2013-04-02 05:25:00,35.6,25.7,29.82,North,354,3.0,6.0,67,0.00,CLR,BKN,0.00,WeatherDisplay:10.37,2013-04-02 03:25:00,
2013-04-02 05:30:00,35.6,25.4,29.82,North,0,3.0,6.0,66,0.00,CLR,BKN,0.00,WeatherDisplay:10.37,2013-04-02 03:30:00,
2013-04-02 05:35:00,35.6,25.4,29.82,North,357,2.0,6.0,66,0.00,CLR,BKN,0.00,WeatherDisplay:10.37,2013-04-02 03:35:00,
2013-04-02 05:40:00,35.6,25.0,29.82,North,358,2.0,4.0,65,0.00,CLR,BKN,0.00,WeatherDisplay:10.37,2013-04-02 03:40:00,
2013-04-02 05:45:00,35.6,25.0,29.82,NNE,16,2.0,4.0,65,0.00,CLR,BKN,0.00,WeatherDisplay:10.37,2013-04-02 03:45:00,
2013-04-02 05:50:00,35.4,25.2,29.82,NNE,21,1.0,4.0,66,0.00,CLR,BKN,0.00,WeatherDisplay:10.37,2013-04-02 03:50:00,
2013-04-02 06:00:00,35.2,25.0,29.82,ENE,58,1.0,3.0,66,0.00,CLR,BKN,0.00,WeatherDisplay:10.37,2013-04-02 04:00:00,
2013-04-02 06:10:00,35.2,25.0,29.81,ENE,67,2.0,4.0,66,0.00,CLR,BKN,0.00,WeatherDisplay:10.37,2013-04-02 04:10:00,
2013-04-02 06:15:00,35.1,24.8,29.81,NE,38,2.0,4.0,66,0.00,CLR,BKN,0.00,WeatherDisplay:10.37,2013-04-02 04:15:00,
2013-04-02 06:20:00,34.9,24.7,29.81,NNE,17,3.0,6.0,66,0.00,CLR,BKN,0.00,WeatherDisplay:10.37,2013-04-02 04:20:00,
2013-04-02 06:25:00,34.7,24.5,29.81,North,8,2.0,6.0,66,0.00,CLR,BKN,0.00,WeatherDisplay:10.37,2013-04-02 04:25:00,
2013-04-02 06:30:00,34.7,24.5,29.81,North,9,3.0,6.0,66,0.00,CLR,BKN,0.00,WeatherDisplay:10.37,2013-04-02 04:30:00,
2013-04-02 06:40:00,34.5,24.3,29.81,NNE,12,3.0,6.0,66,0.00,CLR,BKN,0.00,WeatherDisplay:10.37,2013-04-02 04:40:00,
2013-04-02 06:45:00,34.5,24.3,29.81,NE,45,2.0,5.0,66,0.00,CLR,BKN,0.00,WeatherDisplay:10.37,2013-04-02 04:45:00,
2013-04-02 06:50:00,34.7,24.5,29.81,ENE,63,2.0,4.0,66,0.00,CLR,BKN,0.00,WeatherDisplay:10.37,2013-04-02 04:50:00,
2013-04-02 07:00:00,34.7,24.9,29.81,NNE,25,1.0,5.0,67,0.00,CLR,BKN,0.00,WeatherDisplay:10.37,2013-04-02 05:00:00,
2013-04-02 07:10:00,34.9,25.0,29.81,North,353,2.0,6.0,67,0.00,CLR,BKN,0.00,WeatherDisplay:10.37,2013-04-02 05:10:00,
2013-04-02 07:20:00,35.2,25.4,29.81,NNW,342,3.0,7.0,67,0.00,CLR,BKN,0.00,WeatherDisplay:10.37,2013-04-02 05:20:00,
2013-04-02 07:25:00,35.4,25.5,29.82,NNW,332,2.0,7.0,67,0.00,CLR,BKN,0.00,WeatherDisplay:10.37,2013-04-02 05:25:00,
2013-04-02 07:30:00,35.6,25.0,29.82,NNW,344,1.0,5.0,65,0.00,CLR,BKN,0.00,WeatherDisplay:10.37,2013-04-02 05:30:00,
2013-04-02 07:40:00,35.8,25.2,29.82,NE,43,1.0,2.0,65,0.00,CLR,BKN,0.00,WeatherDisplay:10.37,2013-04-02 05:40:00,
2013-04-02 07:45:00,36.0,25.3,29.82,ENE,66,1.0,3.0,65,0.00,CLR,BKN,0.00,WeatherDisplay:10.37,2013-04-02 05:45:00,
2013-04-02 07:50:00,36.1,25.4,29.82,NE,39,1.0,4.0,65,0.00,CLR,BKN,0.00,WeatherDisplay:10.37,2013-04-02 05:50:00,
2013-04-02 07:55:00,36.1,25.5,29.82,NE,41,1.0,4.0,65,0.00,CLR,BKN,0.00,WeatherDisplay:10.37,2013-04-02 05:55:00,
2013-04-02 08:00:00,36.3,25.7,29.82,NE,48,1.0,3.0,65,0.00,CLR,BKN,0.00,WeatherDisplay:10.37,2013-04-02 06:00:00,
2013-04-02 08:10:00,36.5,25.5,29.82,NE,45,0.0,3.0,64,0.00,CLR,BKN,0.00,WeatherDisplay:10.37,2013-04-02 06:10:00,
2013-04-02 08:20:00,36.7,25.6,29.83,NNE,29,3.0,5.0,64,0.00,CLR,BKN,0.00,WeatherDisplay:10.37,2013-04-02 06:20:00,
2013-04-02 08:30:00,36.9,25.5,29.83,NE,37,0.0,2.0,63,0.00,CLR,BKN,0.00,WeatherDisplay:10.37,2013-04-02 06:30:00,
2013-04-02 08:40:00,37.2,25.4,29.83,East,84,1.0,3.0,62,0.00,CLR,BKN,0.00,WeatherDisplay:10.37,2013-04-02 06:40:00,
2013-04-02 08:50:00,37.4,27.1,29.83,ENE,77,2.0,3.0,66,0.00,BKN,BKN,0.00,WeatherDisplay:10.37,2013-04-02 06:50:00,
2013-04-02 08:55:00,37.6,26.9,29.83,ENE,72,0.0,3.0,65,0.00,BKN,BKN,0.00,WeatherDisplay:10.37,2013-04-02 06:55:00,
2013-04-02 09:00:00,37.8,27.0,29.83,East,87,1.0,2.0,65,0.00,BKN,BKN,0.00,WeatherDisplay:10.37,2013-04-02 07:00:00,
2013-04-02 09:05:00,37.8,27.0,29.83,East,80,1.0,3.0,65,0.00,BKN,BKN,0.00,WeatherDisplay:10.37,2013-04-02 07:05:00,
2013-04-02 09:10:00,37.8,27.0,29.83,ENE,60,2.0,5.0,65,0.00,BKN,BKN,0.00,WeatherDisplay:10.37,2013-04-02 07:10:00,
2013-04-02 09:15:00,37.8,26.7,29.83,ENE,71,1.0,2.0,64,0.00,BKN,BKN,0.00,WeatherDisplay:10.37,2013-04-02 07:15:00,
2013-04-02 09:20:00,37.9,26.8,29.83,East,85,2.0,4.0,64,0.00,BKN,BKN,0.00,WeatherDisplay:10.37,2013-04-02 07:20:00,
2013-04-02 09:25:00,38.1,27.0,29.83,ENE,57,2.0,5.0,64,0.00,BKN,BKN,0.00,WeatherDisplay:10.37,2013-04-02 07:25:00,
2013-04-02 09:30:00,38.4,27.3,29.83,ENE,65,1.0,6.0,64,0.00,BKN,BKN,0.00,WeatherDisplay:10.37,2013-04-02 07:30:00,
2013-04-02 09:35:00,38.7,27.5,29.82,NNE,22,3.0,6.0,64,0.00,BKN,BKN,0.00,WeatherDisplay:10.37,2013-04-02 07:35:00,
2013-04-02 09:40:00,39.0,27.9,29.83,NE,34,5.0,7.0,64,0.00,BKN,BKN,0.00,WeatherDisplay:10.37,2013-04-02 07:40:00,
2013-04-02 09:50:00,39.4,27.0,29.83,ENE,77,5.0,10.0,61,0.00,CLR,BKN,0.00,WeatherDisplay:10.37,2013-04-02 07:50:00,
2013-04-02 09:55:00,39.6,26.8,29.83,ENE,57,5.0,8.0,60,0.00,CLR,BKN,0.00,WeatherDisplay:10.37,2013-04-02 07:55:00,
2013-04-02 10:00:00,39.6,26.8,29.83,ENE,68,5.0,9.0,60,0.00,CLR,BKN,0.00,WeatherDisplay:10.37,2013-04-02 08:00:00,
2013-04-02 10:10:00,40.0,27.3,29.82,NE,45,3.0,7.0,60,0.00,CLR,BKN,0.00,WeatherDisplay:10.37,2013-04-02 08:10:00,
2013-04-02 10:15:00,40.4,27.2,29.82,NE,50,5.0,7.0,59,0.00,CLR,BKN,0.00,WeatherDisplay:10.37,2013-04-02 08:15:00,
2013-04-02 10:20:00,40.6,27.0,29.82,ENE,65,6.0,8.0,58,0.00,BKN,BKN,0.00,WeatherDisplay:10.37,2013-04-02 08:20:00,
2013-04-02 10:30:00,40.6,27.0,29.82,East,86,5.0,8.0,58,0.00,BKN,BKN,0.00,WeatherDisplay:10.37,2013-04-02 08:30:00,
2013-04-02 10:40:00,40.8,27.2,29.82,ENE,58,5.0,8.0,58,0.00,BKN,BKN,0.00,WeatherDisplay:10.37,2013-04-02 08:40:00,
2013-04-02 10:45:00,40.8,27.2,29.82,ENE,73,5.0,7.0,58,0.00,BKN,BKN,0.00,WeatherDisplay:10.37,2013-04-02 08:45:00,
2013-04-02 10:50:00,41.0,26.9,29.82,ENE,68,6.0,8.0,57,0.00,-SN,BKN,0.00,WeatherDisplay:10.37,2013-04-02 08:50:00,
2013-04-02 11:00:00,41.2,27.5,29.81,East,87,5.0,11.0,58,0.00,-SN,BKN,0.00,WeatherDisplay:10.37,2013-04-02 09:00:00,
2013-04-02 11:05:00,41.4,27.3,29.81,ENE,76,6.0,11.0,57,0.00,-SN,BKN,0.00,WeatherDisplay:10.37,2013-04-02 09:05:00,
2013-04-02 11:10:00,41.4,27.3,29.81,ENE,76,5.0,9.0,57,0.00,-SN,BKN,0.00,WeatherDisplay:10.37,2013-04-02 09:10:00,
2013-04-02 11:20:00,41.7,27.2,29.81,East,87,2.0,10.0,56,0.00,-SN,BKN,0.00,WeatherDisplay:10.37,2013-04-02 09:20:00,
2013-04-02 11:25:00,41.9,27.3,29.81,ENE,77,7.0,11.0,56,0.00,-SN,BKN,0.00,WeatherDisplay:10.37,2013-04-02 09:25:00,
2013-04-02 11:30:00,42.1,27.5,29.80,ENE,75,7.0,10.0,56,0.00,-SN,BKN,0.00,WeatherDisplay:10.37,2013-04-02 09:30:00,
2013-04-02 11:40:00,42.4,27.8,29.80,NE,54,6.0,11.0,56,0.00,-SN,BKN,0.00,WeatherDisplay:10.37,2013-04-02 09:40:00,
2013-04-02 11:45:00,42.8,27.7,29.80,ENE,63,6.0,13.0,55,0.00,-SN,BKN,0.00,WeatherDisplay:10.37,2013-04-02 09:45:00,
2013-04-02 11:55:00,43.0,27.5,29.79,East,82,7.0,13.0,54,0.00,-RA,BKN,0.00,WeatherDisplay:10.37,2013-04-02 09:55:00,
2013-04-02 12:00:00,43.5,28.4,29.79,NE,56,6.0,12.0,55,0.00,-RA,BKN,0.00,WeatherDisplay:10.37,2013-04-02 10:00:00,
2013-04-02 12:05:00,43.5,28.4,29.78,NE,42,7.0,12.0,55,0.00,-RA,BKN,0.00,WeatherDisplay:10.37,2013-04-02 10:05:00,
2013-04-02 12:15:00,43.7,28.1,29.78,East,83,8.0,17.0,54,0.00,-RA,BKN,0.00,WeatherDisplay:10.37,2013-04-02 10:15:00,
2013-04-02 12:20:00,43.7,28.1,29.78,ENE,74,9.0,15.0,54,0.00,-RA,BKN,0.00,WeatherDisplay:10.37,2013-04-02 10:20:00,
2013-04-02 12:25:00,43.9,28.3,29.77,NE,52,6.0,13.0,54,0.00,-RA,BKN,0.00,WeatherDisplay:10.37,2013-04-02 10:25:00,
2013-04-02 12:30:00,44.2,28.6,29.77,NE,35,12.0,20.0,54,0.00,-RA,BKN,0.00,WeatherDisplay:10.37,2013-04-02 10:30:00,
2013-04-02 12:40:00,44.1,28.5,29.77,ENE,68,9.0,15.0,54,0.00,-RA,BKN,0.00,WeatherDisplay:10.37,2013-04-02 10:40:00,
2013-04-02 12:50:00,43.9,28.7,29.77,East,79,8.0,14.0,55,0.00,OVC,BKN,0.00,WeatherDisplay:10.37,2013-04-02 10:50:00,
2013-04-02 13:00:00,43.7,29.0,29.76,ENE,74,8.0,15.0,56,0.00,OVC,BKN,0.00,WeatherDisplay:10.37,2013-04-02 11:00:00,
2013-04-02 13:10:00,43.3,29.1,29.75,NE,49,6.0,10.0,57,0.00,OVC,BKN,0.00,WeatherDisplay:10.37,2013-04-02 11:10:00,
2013-04-02 13:15:00,43.3,29.5,29.74,NE,41,6.0,13.0,58,0.00,OVC,BKN,0.00,WeatherDisplay:10.37,2013-04-02 11:15:00,
2013-04-02 13:25:00,43.3,30.0,29.74,NNE,33,6.0,15.0,59,0.00,OVC,BKN,0.00,WeatherDisplay:10.37,2013-04-02 11:25:00,
2013-04-02 13:30:00,43.3,30.0,29.74,ENE,59,8.0,13.0,59,0.00,OVC,BKN,0.00,WeatherDisplay:10.37,2013-04-02 11:30:00,
2013-04-02 13:40:00,43.7,29.9,29.73,NE,49,6.0,13.0,58,0.00,OVC,BKN,0.00,WeatherDisplay:10.37,2013-04-02 11:40:00,
2013-04-02 13:45:00,44.0,30.6,29.73,NE,49,9.0,13.0,59,0.00,OVC,BKN,0.00,WeatherDisplay:10.37,2013-04-02 11:45:00,
2013-04-02 13:50:00,44.2,30.4,29.73,NE,42,8.0,13.0,58,0.00,-RA,BKN,0.00,WeatherDisplay:10.37,2013-04-02 11:50:00,
2013-04-02 14:00:00,44.4,30.1,29.72,NE,49,6.0,13.0,57,0.00,-RA,BKN,0.00,WeatherDisplay:10.37,2013-04-02 12:00:00,
2013-04-02 14:05:00,44.4,30.1,29.72,NNE,18,7.0,11.0,57,0.00,-RA,BKN,0.00,WeatherDisplay:10.37,2013-04-02 12:05:00,
2013-04-02 14:10:00,44.4,29.7,29.72,NNE,13,3.0,13.0,56,0.00,-RA,BKN,0.00,WeatherDisplay:10.37,2013-04-02 12:10:00,
2013-04-02 14:20:00,44.8,29.6,29.71,NE,39,5.0,17.0,55,0.00,-RA,BKN,0.00,WeatherDisplay:10.37,2013-04-02 12:20:00,
2013-04-02 14:25:00,45.0,29.3,29.71,NNE,33,8.0,15.0,54,0.00,-RA,BKN,0.00,WeatherDisplay:10.37,2013-04-02 12:25:00,
2013-04-02 14:30:00,45.0,29.3,29.70,NNE,32,6.0,11.0,54,0.00,-RA,BKN,0.00,WeatherDisplay:10.37,2013-04-02 12:30:00,
2013-04-02 14:40:00,45.1,29.5,29.71,NNE,25,9.0,14.0,54,0.00,-RA,BKN,0.00,WeatherDisplay:10.37,2013-04-02 12:40:00,
2013-04-02 14:45:00,45.1,29.0,29.70,NE,38,6.0,11.0,53,0.00,-RA,BKN,0.00,WeatherDisplay:10.37,2013-04-02 12:45:00,
2013-04-02 14:55:00,45.3,28.7,29.71,ENE,62,6.0,10.0,52,0.00,-RA,BKN,0.00,WeatherDisplay:10.37,2013-04-02 12:55:00,
2013-04-02 15:00:00,45.5,28.4,29.71,NE,38,7.0,14.0,51,0.00,-RA,BKN,0.00,WeatherDisplay:10.37,2013-04-02 13:00:00,
2013-04-02 15:10:00,45.5,28.4,29.71,NE,39,5.0,11.0,51,0.00,-RA,BKN,0.00,WeatherDisplay:10.37,2013-04-02 13:10:00,
2013-04-02 15:15:00,45.5,27.9,29.71,NE,45,3.0,10.0,50,0.00,-RA,BKN,0.00,WeatherDisplay:10.37,2013-04-02 13:15:00,
2013-04-02 15:20:00,45.5,28.4,29.71,NE,43,5.0,10.0,51,0.00,BKN,BKN,0.00,WeatherDisplay:10.37,2013-04-02 13:20:00,
2013-04-02 15:25:00,45.5,27.9,29.71,NNE,29,7.0,15.0,50,0.00,BKN,BKN,0.00,WeatherDisplay:10.37,2013-04-02 13:25:00,
2013-04-02 15:35:00,45.4,27.8,29.71,NNE,30,5.0,8.0,50,0.00,BKN,BKN,0.00,WeatherDisplay:10.37,2013-04-02 13:35:00,
2013-04-02 15:40:00,45.3,28.2,29.71,NNE,24,5.0,13.0,51,0.00,BKN,BKN,0.00,WeatherDisplay:10.37,2013-04-02 13:40:00,
2013-04-02 15:45:00,45.3,28.2,29.71,NE,40,5.0,10.0,51,0.00,BKN,BKN,0.00,WeatherDisplay:10.37,2013-04-02 13:45:00,
2013-04-02 15:50:00,45.1,27.6,29.71,NE,53,6.0,13.0,50,0.00,-RA,BKN,0.00,WeatherDisplay:10.37,2013-04-02 13:50:00,
2013-04-02 15:55:00,45.1,28.1,29.71,NE,53,8.0,14.0,51,0.00,-RA,BKN,0.00,WeatherDisplay:10.37,2013-04-02 13:55:00,
2013-04-02 16:00:00,45.0,28.4,29.71,NE,43,8.0,17.0,52,0.00,-RA,BKN,0.00,WeatherDisplay:10.37,2013-04-02 14:00:00,
2013-04-02 16:10:00,45.0,28.8,29.71,NE,42,5.0,8.0,53,0.00,-RA,BKN,0.00,WeatherDisplay:10.37,2013-04-02 14:10:00,
2013-04-02 16:15:00,44.8,30.0,29.71,NE,39,5.0,8.0,56,0.00,-RA,BKN,0.00,WeatherDisplay:10.37,2013-04-02 14:15:00,
2013-04-02 16:20:00,44.5,31.1,29.71,NNE,22,5.0,13.0,59,0.00,-RA,BKN,0.00,WeatherDisplay:10.37,2013-04-02 14:20:00,
2013-04-02 16:25:00,44.2,31.6,29.71,NNE,18,5.0,8.0,61,0.00,-RA,BKN,0.00,WeatherDisplay:10.37,2013-04-02 14:25:00,
2013-04-02 16:30:00,44.1,31.9,29.70,NNE,32,5.0,8.0,62,0.00,-RA,BKN,0.00,WeatherDisplay:10.37,2013-04-02 14:30:00,
2013-04-02 16:35:00,43.9,32.1,29.70,NNE,25,3.0,8.0,63,0.00,-RA,BKN,0.00,WeatherDisplay:10.37,2013-04-02 14:35:00,
2013-04-02 16:45:00,43.5,32.5,29.70,NNE,27,6.0,10.0,65,0.00,-RA,BKN,0.00,WeatherDisplay:10.37,2013-04-02 14:45:00,
2013-04-02 16:50:00,43.3,32.7,29.70,NNE,21,7.0,11.0,66,0.00,-RA,BKN,0.00,WeatherDisplay:10.37,2013-04-02 14:50:00,
2013-04-02 16:55:00,43.3,32.7,29.69,NNE,27,3.0,9.0,66,0.00,-RA,BKN,0.00,WeatherDisplay:10.37,2013-04-02 14:55:00,
2013-04-02 17:00:00,43.3,33.1,29.69,NNE,19,6.0,9.0,67,0.00,-RA,BKN,0.00,WeatherDisplay:10.37,2013-04-02 15:00:00,
2013-04-02 17:10:00,43.5,33.3,29.68,NNW,347,7.0,11.0,67,0.00,-RA,BKN,0.00,WeatherDisplay:10.37,2013-04-02 15:10:00,
2013-04-02 17:20:00,43.5,33.7,29.69,North,350,6.0,8.0,68,0.00,BKN,BKN,0.00,WeatherDisplay:10.37,2013-04-02 15:20:00,
2013-04-02 17:25:00,43.5,34.0,29.69,North,353,6.0,10.0,69,0.00,BKN,BKN,0.00,WeatherDisplay:10.37,2013-04-02 15:25:00,
2013-04-02 17:30:00,41.0,37.1,29.67,North,3,0.0,0.0,86,0.00,RA,BKN,0.17,WeatherDisplay:10.37,2013-04-02 15:30:00,
2013-04-02 17:35:00,43.3,33.8,29.68,North,355,6.0,11.0,69,0.00,BKN,BKN,0.00,WeatherDisplay:10.37,2013-04-02 15:35:00,
2013-04-02 17:40:00,43.3,33.8,29.68,North,1,6.0,8.0,69,0.00,BKN,BKN,0.00,WeatherDisplay:10.37,2013-04-02 15:40:00,
2013-04-02 17:45:00,43.3,33.8,29.69,North,4,5.0,8.0,69,0.00,BKN,BKN,0.00,WeatherDisplay:10.37,2013-04-02 15:45:00,
2013-04-02 17:50:00,43.3,34.2,29.68,North,358,5.0,8.0,70,0.00,-RA,BKN,0.00,WeatherDisplay:10.37,2013-04-02 15:50:00,
2013-04-02 18:00:00,43.2,34.0,29.68,North,351,6.0,9.0,70,0.00,-RA,BKN,0.00,WeatherDisplay:10.37,2013-04-02 16:00:00,
2013-04-02 18:10:00,43.2,34.4,29.68,North,349,5.0,9.0,71,0.00,-RA,BKN,0.00,WeatherDisplay:10.37,2013-04-02 16:10:00,
2013-04-02 18:15:00,43.0,34.2,29.68,North,354,5.0,8.0,71,0.00,-RA,BKN,0.00,WeatherDisplay:10.37,2013-04-02 16:15:00,
2013-04-02 18:20:00,43.0,34.6,29.68,North,352,5.0,8.0,72,0.00,-RA,BKN,0.01,WeatherDisplay:10.37,2013-04-02 16:20:00,
2013-04-02 18:30:00,42.6,34.9,29.68,North,360,5.0,7.0,74,0.00,-RA,BKN,0.01,WeatherDisplay:10.37,2013-04-02 16:30:00,
2013-04-02 18:40:00,42.3,35.2,29.68,North,7,5.0,7.0,76,0.00,-RA,BKN,0.01,WeatherDisplay:10.37,2013-04-02 16:40:00,
2013-04-02 18:50:00,42.0,35.3,29.68,North,355,5.0,7.0,77,0.01,-RA,BKN,0.02,WeatherDisplay:10.37,2013-04-02 16:50:00,
2013-04-02 18:55:00,41.8,35.5,29.68,North,351,5.0,8.0,78,0.01,-RA,BKN,0.02,WeatherDisplay:10.37,2013-04-02 16:55:00,
2013-04-02 19:00:00,41.7,36.0,29.69,North,352,6.0,8.0,80,0.00,-RA,BKN,0.02,WeatherDisplay:10.37,2013-04-02 17:00:00,
2013-04-02 19:05:00,41.5,35.8,29.68,North,351,6.0,8.0,80,0.00,-RA,BKN,0.02,WeatherDisplay:10.37,2013-04-02 17:05:00,
2013-04-02 19:10:00,41.5,35.8,29.68,North,349,5.0,8.0,80,0.01,-RA,BKN,0.04,WeatherDisplay:10.37,2013-04-02 17:10:00,
2013-04-02 19:15:00,41.4,36.0,29.68,North,350,2.0,8.0,81,0.00,-RA,BKN,0.04,WeatherDisplay:10.37,2013-04-02 17:15:00,
2013-04-02 19:20:00,41.4,36.0,29.68,North,354,6.0,8.0,81,0.00,-RA,BKN,0.04,WeatherDisplay:10.37,2013-04-02 17:20:00,
2013-04-02 19:25:00,41.2,35.8,29.68,North,354,5.0,8.0,81,0.00,-RA,BKN,0.05,WeatherDisplay:10.37,2013-04-02 17:25:00,
2013-04-02 19:30:00,41.2,35.8,29.68,North,350,5.0,9.0,81,0.01,-RA,BKN,0.05,WeatherDisplay:10.37,2013-04-02 17:30:00,
2013-04-02 19:49:00,41.2,35.8,29.68,North,0,0.0,0.0,81,0.05,-RA,BKN,0.06,WeatherDisplay:10.37,2013-04-02 17:49:00,
2013-04-02 19:54:00,41.0,36.2,29.67,NW,315,8.1,8.1,83,0.04,-RA,BKN,0.06,WeatherDisplay:10.37,2013-04-02 17:54:00,
2013-04-02 19:59:00,41.0,36.2,29.67,North,0,8.3,8.3,83,0.05,-RA,BKN,0.07,WeatherDisplay:10.37,2013-04-02 17:59:00,
2013-04-02 20:04:00,41.0,36.5,29.67,North,0,9.2,9.2,84,0.05,-RA,BKN,0.07,WeatherDisplay:10.37,2013-04-02 18:04:00,
2013-04-02 20:09:00,41.0,36.5,29.68,North,0,9.2,9.2,84,0.06,-RA,BKN,0.08,WeatherDisplay:10.37,2013-04-02 18:09:00,
2013-04-02 20:14:00,41.0,36.5,29.67,WSW,248,9.2,9.2,84,0.07,-RA,BKN,0.09,WeatherDisplay:10.37,2013-04-02 18:14:00,
2013-04-02 20:19:00,41.0,36.8,29.67,NE,45,9.2,9.2,85,0.06,RA,BKN,0.09,WeatherDisplay:10.37,2013-04-02 18:19:00,
2013-04-02 20:24:00,41.0,36.8,29.67,NNW,338,10.4,10.4,85,0.07,RA,BKN,0.11,WeatherDisplay:10.37,2013-04-02 18:24:00,
2013-04-02 20:29:00,41.0,36.8,29.67,NW,315,10.4,10.4,85,0.07,RA,BKN,0.12,WeatherDisplay:10.37,2013-04-02 18:29:00,
2013-04-02 20:34:00,41.0,36.8,29.68,North,0,10.4,10.4,85,0.07,RA,BKN,0.12,WeatherDisplay:10.37,2013-04-02 18:34:00,
2013-04-02 20:39:00,41.0,36.8,29.67,North,0,9.2,9.2,85,0.06,RA,BKN,0.12,WeatherDisplay:10.37,2013-04-02 18:39:00,
2013-04-02 20:44:00,41.0,36.8,29.67,NNW,338,10.4,10.4,85,0.07,RA,BKN,0.13,WeatherDisplay:10.37,2013-04-02 18:44:00,
2013-04-02 20:49:00,41.0,37.1,29.67,NNE,22,9.2,9.2,86,0.07,RA,BKN,0.13,WeatherDisplay:10.37,2013-04-02 18:49:00,
2013-04-02 20:55:00,41.0,37.1,29.68,North,2,6.0,12.0,86,0.01,RA,BKN,0.14,WeatherDisplay:10.37,2013-04-02 18:55:00,
2013-04-02 21:00:00,41.0,37.1,29.68,North,0,6.9,6.9,86,0.07,RA,BKN,0.14,WeatherDisplay:10.37,2013-04-02 19:00:00,
2013-04-02 21:05:00,41.0,37.1,29.68,North,0,9.2,9.2,86,0.08,RA,BKN,0.15,WeatherDisplay:10.37,2013-04-02 19:05:00,
2013-04-02 21:10:00,41.0,37.1,29.67,North,0,9.2,9.2,86,0.07,RA,BKN,0.15,WeatherDisplay:10.37,2013-04-02 19:10:00,
2013-04-02 21:15:00,41.0,37.1,29.67,North,0,6.0,6.0,86,0.07,RA,BKN,0.17,WeatherDisplay:10.37,2013-04-02 19:15:00,
2013-04-02 21:20:00,41.0,37.1,29.67,NW,315,10.4,10.4,86,0.07,-RA,BKN,0.17,WeatherDisplay:10.37,2013-04-02 19:20:00,
2013-04-02 21:51:00,41.0,37.1,29.67,North,0,0.0,0.0,86,0.05,-RA,BKN,0.17,WeatherDisplay:10.37,2013-04-02 19:51:00,
2013-04-02 21:57:00,41.0,37.4,29.67,WNW,292,9.8,9.8,87,0.05,-RA,BKN,0.17,WeatherDisplay:10.37,2013-04-02 19:57:00,
2013-04-02 22:02:00,41.0,37.4,29.66,NE,45,10.7,10.7,87,0.04,-RA,BKN,0.17,WeatherDisplay:10.37,2013-04-02 20:02:00,
2013-04-02 22:08:00,41.0,37.4,29.66,North,0,10.4,10.4,87,0.04,-RA,BKN,0.18,WeatherDisplay:10.37,2013-04-02 20:08:00,
2013-04-02 22:13:00,41.0,37.4,29.65,NE,45,9.2,9.2,87,0.05,-RA,BKN,0.19,WeatherDisplay:10.37,2013-04-02 20:13:00,
2013-04-02 22:18:00,41.0,37.4,29.65,North,0,9.2,9.2,87,0.06,-RA,BKN,0.20,WeatherDisplay:10.37,2013-04-02 20:18:00,
2013-04-02 22:23:00,41.0,37.7,29.65,North,0,12.7,12.7,88,0.05,-RA,BKN,0.20,WeatherDisplay:10.37,2013-04-02 20:23:00,
2013-04-02 22:28:00,40.8,37.8,29.65,North,0,11.5,11.5,89,0.06,-RA,BKN,0.21,WeatherDisplay:10.37,2013-04-02 20:28:00,
2013-04-02 22:33:00,40.8,37.8,29.65,East,90,10.7,10.7,89,0.06,-RA,BKN,0.22,WeatherDisplay:10.37,2013-04-02 20:33:00,
2013-04-02 22:38:00,40.8,37.8,29.65,NE,45,10.4,10.4,89,0.06,-RA,BKN,0.22,WeatherDisplay:10.37,2013-04-02 20:38:00,
2013-04-02 22:43:00,40.8,37.8,29.65,North,0,12.7,12.7,89,0.07,-RA,BKN,0.24,WeatherDisplay:10.37,2013-04-02 20:43:00,
2013-04-02 22:49:00,40.8,37.8,29.64,NNW,338,10.4,10.4,89,0.07,-RA,BKN,0.24,WeatherDisplay:10.37,2013-04-02 20:49:00,
2013-04-02 22:54:00,40.8,37.8,29.64,North,0,10.4,10.4,89,0.08,-RA,BKN,0.25,WeatherDisplay:10.37,2013-04-02 20:54:00,
2013-04-02 22:59:00,40.6,37.7,29.64,NNW,338,12.7,12.7,89,0.08,-RA,BKN,0.25,WeatherDisplay:10.37,2013-04-02 20:59:00,
2013-04-02 23:04:00,40.6,37.7,29.63,NE,45,12.7,12.7,89,0.08,-RA,BKN,0.25,WeatherDisplay:10.37,2013-04-02 21:04:00,
2013-04-02 23:09:00,40.6,37.7,29.63,North,0,13.0,13.0,89,0.07,-RA,BKN,0.26,WeatherDisplay:10.37,2013-04-02 21:09:00,
2013-04-02 23:14:00,40.6,37.7,29.63,NE,45,11.5,11.5,89,0.07,-RA,BKN,0.26,WeatherDisplay:10.37,2013-04-02 21:14:00,
2013-04-02 23:19:00,40.6,37.9,29.63,North,0,10.4,10.4,90,0.06,-RA,BKN,0.26,WeatherDisplay:10.37,2013-04-02 21:19:00,
2013-04-02 23:24:00,40.5,37.8,29.63,North,0,10.4,10.4,90,0.06,-RA,BKN,0.27,WeatherDisplay:10.37,2013-04-02 21:24:00,
2013-04-02 23:29:00,40.5,37.8,29.63,North,0,12.7,12.7,90,0.06,-RA,BKN,0.27,WeatherDisplay:10.37,2013-04-02 21:29:00,
2013-04-02 23:34:00,40.5,37.8,29.62,North,0,12.7,12.7,90,0.05,-RA,BKN,0.27,WeatherDisplay:10.37,2013-04-02 21:34:00,
2013-04-02 23:39:00,40.5,37.8,29.62,North,0,12.7,12.7,90,0.06,-RA,BKN,0.28,WeatherDisplay:10.37,2013-04-02 21:39:00,
2013-04-02 23:44:00,40.5,37.8,29.62,North,0,11.5,11.5,90,0.05,-RA,BKN,0.28,WeatherDisplay:10.37,2013-04-02 21:44:00,
2013-04-02 23:49:00,40.5,37.5,29.62,North,0,15.0,15.0,89,0.06,-RA,BKN,0.30,WeatherDisplay:10.37,2013-04-02 21:49:00,
2013-04-02 23:54:00,40.5,37.5,29.62,North,0,12.7,12.7,89,0.05,-RA,BKN,0.30,WeatherDisplay:10.37,2013-04-02 21:54:00,